Aérodrome :
LOGIN :

S'inscrire | Disclaimer

   EN    FR    IT 

 










Légende :    VFR   VFR Marginal   IFR   IFR Intensif   IFR Très Intensif
Visi : 
Plafond : 
>= 8 km
>= 3000ft
5 à 8 km
1000 à 3000 ft
1500m à 5 km
500 à 1000 ft
800 à 1500m
200 à 500 ft
< 800m
< 200 ft
Symboles :   Orages  Brouillard  Fortes neiges  Fortes précipitations  Vent > 20 kt
SIGMETs :   Divers  Orages  Givrage  Turbulence  Onde Orograph.  Cendres Volcan.







- Altitude de l'aérodrome : 300 ft
- Code IATA : MLA


LMML - Malta Luqa

DERNIER METAR :
  • 181045Z 25006KT 210V290 9999 FEW020 24/16 Q1021 NOSIG

METARs EXPIRÉS :
  • 181015Z VRB04KT 9999 FEW020 23/16 Q1021 NOSIG
  • 180945Z 24004KT 200V280 9999 FEW020 23/16 Q1021 NOSIG
  • 180915Z 26004KT 220V310 9999 FEW020 23/16 Q1021 NOSIG
  • 180845Z 23004KT 200V270 9999 FEW020 22/16 Q1022 NOSIG
  • 180815Z VRB03KT 9999 FEW022 23/17 Q1022 NOSIG

TAF TAF LMML
Valide du 18 à 06h jusqu'au 19 à 06h UTC


180500Z 1806/1906 24006KT 9999 SCT020
PROB30 1900/1906 7000
Pas de NOTAMs connus pour ce terrain.



MET'MAP, la Météo Aéronautique d'un coup d'oeil ! - Copyright ORBIFLY Décembre 2007 - Disclaimer

ORBIFLY MET'MAP TEAM :

Programmation & Développement : Alexandra Zaïnal
Conception & Développement : Baudouin d'Aumeries
Co-Programmation & Développement : Marc-Olivier Méhu
Soutien technique & logistique : Manuel Goepfert

Contact : metmap@orbifly.com




SOURCES & CREDITS :

   NOAA